Погода Зея

Погода Зея : погода сейчас, прогноз погоды и архив. Всё, что Вы хотите узнать о погоде Зея!

Хотите узнать прогноз погоды Зея? Тогда Вам сюда: Погода Зея

Поиск расширенной информации на нашем сайте:

Другие новости

Новости СМИ2

Главная страница сайта

Новости сайта

02.10.2013

Напоминаем, что на нашем новом сайте вы можете получить высокодетализированные прогнозы погоды по пунктам России, СНГ и мира (включающие важные для авиации метеовеличины, такие как направление и скорость ветра, видимость, явления погоды, количество и форма облачности, нижняя и верхняя граница облачности), а также ознакомиться с разнообразными материалами по авиационной метеорологии и подборкой полезных ссылок на эту тему.

Сайт Метеоцентр.Азия посвящён разработке технологий оптимизации авиаметеорологического обслуживания, включая проектирование и перспективное создание нескольких автоматизированных авиаметеорологических систем:
- система выпуска высокодетальных прогностических карт явлений погоды для нижнего воздушного пространства по России и ближнему зарубежью;
- система верификации прогнозов TAF (выпускаемых синоптиками официальных АМСГ РФ и ближнего зарубежья) и AUTOTAF (выпускаемых сайтом Метеоцентр.Азия) - выявление ошибок, онлайн-сопоставление с фактической погодой METAR, автоматическое внесение коррективов в прогнозы при резком отклонении фактической погоды от прогноза, подсчёт оправдываемости прогнозов по элементам и в целом;
- система обработки, анализа и отображения авиаметеорологической информации для применения провайдерами метеорологической информации.


Погода Зея - сегодня

Время (UTC), дата Ветер
(°,м/с) 
Видим.   Явления Облачность Т
(°С)
Тd
(°С)
f(%) Тe
(°С)
Pmin
(гПа)
dP
(гПа)
Po
(мм)
O2
(г/м3)
Тmin Tmax R s Состояние
почвы
15 26.05.17 тихо ()   20000 м    3/0 верхняя 
[Ci sp]
+16.4 +6.4 52 +16  1002.8  0.4  732  277           
18 26.05.17 130 (ЮВ) 20000 м    8/0 средняя, верхняя 
[Ac trans|Ci sp]
+17.6 +4.5 42 +19  1002.3  -0.4  732  276           
21 26.05.17 130 (ЮВ) 20000 м  слаб. ливневой дождь  10/10 600 м кучево-дожд. 
[Cb cap]
+16.2 +5.7 50 +17  1002.2  -0.3  731  277           
00 27.05.17 140 (ЮВ) 20000 м  {ливн. осадки}  10/10 600 м кучево-дожд. 
[Cb cap]
+16 +7.1 55 +17  1003.2  732  277  +15.8    0.0    сухая 
03 27.05.17 140 (ЮВ) 20000 м  слаб. ливневой дождь  10/10 600 м кучево-дожд. 
[Cb cap]
+17.6 +7.5 52 +19  1001.7  -1.3  731  275           
06 27.05.17 160 (Ю) 20000 м  в посл. час ливневой дождь  10/8 600 м кучево-дожд., средняя 
[Cb cap|Ac As]
+21.4 +7.6 41 +21  999.7  -1.6  730  271           
09 27.05.17 120 (ЮВ) 20000 м    10/3 600 м средняя 
[Sc|Ac As]
+21.5 +8.4 43 +22  996.9  -2.7  728  270           
12 27.05.17 160 (Ю) 20000 м  в посл. час ливневой дождь{гроза}  10/10 600 м кучево-дожд. 
[Cb cap]
+15.5 +12.5 82 +22  996.7  -0.7  727  275    +24.6     
15 27.05.17 тихо ()   20000 м    10/10 600 м кучево-дожд. 
[Cb cap]
+13.3 +12.4 94 +18  997.7  0.8  728  277           
18 27.05.17 тихо ()   20000 м  слаб. ливневой дождь  10/10 600 м кучево-дожд. 
[Cb cap]
+13.3 +12.5 95 +19  996.9  -0.8  727  277           
21 27.05.17 110 (В) 20000 м  слаб. ливневой дождь  10/10 600 м кучево-дожд. 
[Cb cap]
+13.4 +12.6 95 +21  995.3  -1.6  726  276           
00 28.05.17 тихо ()   2000 м  ливневой дождь  10/10 600 м кучево-дожд. 
[Cb cap]
+14.2 +13.4 95 +21  992.9  -2.2  725  275  +13    15    мокрая 
03 28.05.17 170 (Ю) 10 км  ливневой дождь  10/0 кучево-дожд. 
[Cb cap]
+13.8 +12.6 92 +21  991.7  -1.3  724  275           
06 28.05.17 130 (ЮВ) 20000 м  {ливн. осадки}  10/10 600 м кучево-дожд. 
[Cb cap]
+15.7 +12.8 83 +23  989.3  -2.1  722  273           
09 28.05.17 320 (СЗ) 20000 м  слаб. ливневой дождь{гроза}  10/10 600 м кучево-дожд. 
[Cb cap]
+12.2 +11.4 95 +17  989.2  -0.4  722  276           
12 28.05.17 тихо ()   20000 м  {гроза, ливн. осадки}  10/8 600 м кучево-дожд., средняя 
[Cb cap|Ac As]
+9.6 +7.6 87 +10  989.4  -0.1  722  280    +16.3  24     
15 28.05.17 310 (СЗ) 20000 м  слаб. ливневой дождь  10/10 600 м кучево-дожд. 
[Cb cap]
+6.3 +5.3 93 +7  988.1  -1.6  720  283           
18 28.05.17 330 (СЗ) 10 км  слаб. ливневой дождь  10/10 600 м кучево-дожд. 
[Cb cap]
+3.3 +2.4 94 +4  987.4  -1  720  286           
21 28.05.17 180 (Ю) 2000 м  слаб. ливневой дождь  10/10 600 м кучево-дожд. 
[Cb cap]
+1.8 +0.9 94 +3  987.7  0.1  720  288           
00 29.05.17 160 (Ю) 2000 м  слаб. ливневой дождь  10/10 600 м кучево-дожд. 
[Cb cap]
+2.3 +1.3 93 +2  988.4  0.8  720  288  +1.1      мокрая 
03 29.05.17 140 (ЮВ) 20000 м  {ливн. осадки}  10/10 600 м кучево-дожд. 
[Cb cap]
+5.9 +3.2 83 +6  989.8  1.7  722  284           
06 29.05.17 140 (ЮВ) 20000 м  слаб. ливневой дождь  10/10 600 м кучево-дожд. 
[Cb cap]
+6.9 +4.4 84 +8  991.7  723  283           
09 29.05.17 140 (ЮВ) 20000 м  в посл. час ливневой дождь  10/10 600 м кучево-дожд. 
[Cb cap]
+5.9 +3.2 83 +6  989.8  1.7  722  284           
12 29.05.17 140 (ЮВ) 20000 м  слаб. ливневой дождь  10/10 600 м кучево-дожд. 
[Cb cap]
+6.1 +3.9 86 +7  994.8  1.3  725  285    +8.6     
15 29.05.17 тихо ()   20000 м  {ливн. осадки}  10/10 600 м кучево-дожд. 
[Cb cap]
+5.2 +3.6 89 +5  995.5  0.6  726  286           
Время (UTC), дата Ветер
(°,м/с) 
Видим.   Явления Облачность Т
(°С)
Тd
(°С)
f(%) Тe
(°С)
Pmin
(гПа)
dP
(гПа)
Po
(мм)
O2
(г/м3)
Тmin Tmax R s Состояние
почвы

Для получения пояснительной информации подведите курсор к названию столбца.

ПОГОДА Зея - архив

Всё, что Вы хотите узнать о погоде Зея - удобно и подробно!

Выберите нужную дату (начиная с 1 января 2015* года) и нажмите кнопку "Найти".
Будут отображены архивные сводки погоды по пункту Зея, начиная с указанной даты.


Отображать данные в формате CSV (для использования в таблицах Excel)


Внимание! Наш архив погоды предназначен исключительно для личного некоммерческого использования в познавательных целях. Если Вам необходимы официальные справки о состоянии погоды (для производственных, юридических, коммерческих и т.п. целей), обращайтесь в органы Росгидромета.

*Примечание: данная дата относится к архиву по метеостанциям СССР (Россия, СНГ, Балтия).
Архив по метеостанциям Зарубежной Европы и Азии (кроме Китая) хранится 10 дней, по другим регионам земного шара (Китай, Африка, Америка, Австралия, Океания) - 1 день.

Зея - район местоположения метеостанции


Название, широта, долгота, высота метеостанции:
Зея 53.7°ш. 127.3°д. 229 м над ур. моря [Российская Федерация]

Дополнительная информация

В oтличие oт бoльшинства пoгoдных сайтoв мы публикуем пoдрoбную метеoинфoрмацию в детальнoм прoфессиoнальнoм фoрмате.

Характеристики температуры и влажнoсти вoздуха измеряются на высoте 2 м в тени вдали oт зданий и деревьев.
Скoрoсть ветра измеряется на высoте 10 м (на урoвне рoста челoвека скoрoсть ветра ниже в 1.5-2 раза). Если метеoстанция нахoдится в гoрoде или в лесу, тo скoрoсть ветра занижена на 2-4 м/с пo сравнению с oткрытым местoм. Скoрoсть ветра над акватoриями крупных рек и oзёр, а также на вершинах хoлмoв на 2-5 м/с выше, чем в oбычных услoвиях.
Атмoсфернoе давление в разных тoчках местнoсти мoжет значительнo oтличаться oт давления на метеoстанции, в зависимoсти oт услoвий рельефа (при пoдъёме на 10 м давление пoнижается примернo на 1 мм рт.ст.).